(165663) = 2001 MT29

Discovered at Haleakala on 2001-06-27 by NEAT.

Orbit

Orbit type: Main Belt

Note: WebGL enabled browser required.

epoch2023-09-13.0
epoch JD2460200.5
perihelion date2018-03-22.36864
perihelion JD2458199.86864
argument of perihelion (°)103.34643
ascending node (°)235.41518
inclination (°)12.06361
eccentricity0.1022767
perihelion distance (AU)2.7964799
Tisserand w.r.t. Jupiter3.2
ΔV w.r.t. Earth (km/sec)11.1
semimajor axis (AU)3.1150802
mean anomaly (°)358.64689
mean daily motion (°/day)0.17926690
aphelion distance (AU)3.434
period (years)5.5
P-vector [x]0.91439095
P-vector [y]-0.40205606
P-vector [z]0.04732979
Q-vector [x]0.36644626
Q-vector [y]0.87170356
Q-vector [z]0.32534603
absolute magnitude14.85
phase slope0.15
uncertainty0
referenceMPEC 2024-A55
observations used762
oppositions16
arc length (days)8220
first opposition used2001
last opposition used2023
residual rms (arc-secs)0.70
perturbers coarse indicatorM-v
perturbers precise indicator003Ek
first observation date used2001-06-27.0
last observation date used2023-12-29.0
computer nameMPCLINUX
JD of orbit computation2456670.745754
perihelion JD uncertainty (days)2.1576E-04
argument of perihelion uncertainty (°)5.2991E-05
ascending node uncertainty (°)3.3017E-05
inclination uncertainty (°)7.0971E-06
eccentricity uncertainty 6.7161E-08
perihelion distance uncertainty (AU)2.0995E-07
Minimum Orbit Intersection Distances (in AU)
for orbit epoch: 2460200.5, reference: E2023-YA3
Mercury2.42048
Venus2.10231
Earth1.81992
Mars1.46983
Jupiter1.96446
Saturn5.84478
Uranus15.1085
Neptune26.8407

Observations

778 total observations over interval: 2001 06 27.48751 – 2023 12 29.226091
These data are available for download (format description).

Date (UT) J2000 RA J2000 Dec Magn Location Ref
2001 06 27.48751 22 38 07.71 +07 27 58.9 20.5   608 – Haleakala-AMOS MPS 32405
2001 06 27.49787 22 38 07.93 +07 28 02.9 20.1   608 – Haleakala-AMOS MPS 32405
2001 06 27.50918 22 38 08.04 +07 28 07.7 20.5   608 – Haleakala-AMOS MPS 32405
2001 06 29.38428 22 38 33.07 +07 40 30.6 19.5 R 699 – Lowell Observatory-LONEOS MPS 32405
2001 06 29.39557 22 38 33.23 +07 40 35.0   699 – Lowell Observatory-LONEOS MPS 32405
2001 06 29.40698 22 38 33.31 +07 40 39.8   699 – Lowell Observatory-LONEOS MPS 32405
2001 06 29.41834 22 38 33.42 +07 40 45.9   699 – Lowell Observatory-LONEOS MPS 32405
2001 08 17.30431 22 24 23.20 +09 36 52.8 19.6   644 – Palomar Mountain/NEAT MPS 37694
2001 08 17.31488 22 24 22.72 +09 36 51.6 19.0   644 – Palomar Mountain/NEAT MPS 37694
2001 08 17.32558 22 24 22.28 +09 36 49.7 19.3   644 – Palomar Mountain/NEAT MPS 37694
2001 08 24.30542 22 19 25.64 +09 13 20.5 18.7 R 699 – Lowell Observatory-LONEOS MPS 37694
2001 08 24.33780 22 19 24.24 +09 13 12.4   699 – Lowell Observatory-LONEOS MPS 37694
2001 08 24.36532 22 19 23.00 +09 13 05.6   699 – Lowell Observatory-LONEOS MPS 37694
2001 08 24.39285 22 19 21.77 +09 12 59.5   699 – Lowell Observatory-LONEOS MPS 37694
2001 09 08.32208 22 08 51.38 +07 53 23.0 18.6 R 699 – Lowell Observatory-LONEOS MPS 34434
2001 09 08.35026 22 08 50.22 +07 53 12.2   699 – Lowell Observatory-LONEOS MPS 34434
2001 09 08.37850 22 08 49.10 +07 53 02.8   699 – Lowell Observatory-LONEOS MPS 34434
2001 09 08.40688 22 08 47.97 +07 52 50.9   699 – Lowell Observatory-LONEOS MPS 34434
2001 09 09.17413 22 08 18.38 +07 47 55.8 19.0 R 699 – Lowell Observatory-LONEOS MPS 34434
2001 09 09.17725 22 08 18.25 +07 47 53.3   699 – Lowell Observatory-LONEOS MPS 34434
2001 09 09.18036 22 08 18.13 +07 47 52.3   699 – Lowell Observatory-LONEOS MPS 34434
2001 09 09.18350 22 08 17.97 +07 47 51.5   699 – Lowell Observatory-LONEOS MPS 34434
2001 09 09.27450 22 08 14.43 +07 47 15.7 18.6 R 699 – Lowell Observatory-LONEOS MPS 34434
2001 09 09.28697 22 08 13.83 +07 47 12.1   699 – Lowell Observatory-LONEOS MPS 34434
2001 09 09.29946 22 08 13.37 +07 47 06.8   699 – Lowell Observatory-LONEOS MPS 34434
2001 09 09.31202 22 08 12.82 +07 47 02.4   699 – Lowell Observatory-LONEOS MPS 34434
2001 09 16.28978 22 04 02.17 +06 59 43.3 18.7   704 – Lincoln Laboratory ETS, New Mexico MPS 35814
2001 09 16.30412 22 04 01.70 +06 59 37.4 19.1   704 – Lincoln Laboratory ETS, New Mexico MPS 35814
2001 09 16.31845 22 04 01.17 +06 59 31.3 19.2   704 – Lincoln Laboratory ETS, New Mexico MPS 35814
2001 09 16.33279 22 04 00.70 +06 59 25.1 19.3   704 – Lincoln Laboratory ETS, New Mexico MPS 35814
2001 09 16.34805 22 04 00.16 +06 59 18.2 19.3   704 – Lincoln Laboratory ETS, New Mexico MPS 35814
2001 09 25.17988 21 59 53.14 +05 56 05.3 18.9   704 – Lincoln Laboratory ETS, New Mexico MPS 49337
2001 09 25.18208 21 59 53.19 +05 56 04.4 18.9   644 – Palomar Mountain/NEAT MPS 49337
2001 09 25.19447 21 59 52.83 +05 55 58.3 18.6   704 – Lincoln Laboratory ETS, New Mexico MPS 49337
2001 09 25.20305 21 59 52.70 +05 55 55.8 18.8   644 – Palomar Mountain/NEAT MPS 49337
2001 09 25.20912 21 59 52.49 +05 55 52.4 19.1   704 – Lincoln Laboratory ETS, New Mexico MPS 49337
2001 09 25.22395 21 59 52.14 +05 55 45.7 19.0   704 – Lincoln Laboratory ETS, New Mexico MPS 49337
2001 09 25.22431 21 59 52.17 +05 55 46.4 19.3   644 – Palomar Mountain/NEAT MPS 49337
2001 09 25.23945 21 59 51.72 +05 55 39.2 18.7   704 – Lincoln Laboratory ETS, New Mexico MPS 49337
2001 10 06.10496 21 57 02.19 +04 39 22.1 19.4   644 – Palomar Mountain/NEAT MPS 37694
2001 10 06.11543 21 57 02.05 +04 39 18.4 19.7   644 – Palomar Mountain/NEAT MPS 37694
2001 10 06.12599 21 57 01.94 +04 39 14.3 19.4   644 – Palomar Mountain/NEAT MPS 37694
2001 10 19.09602 21 57 13.24 +03 19 28.6 19.0   704 – Lincoln Laboratory ETS, New Mexico MPS 39176
2001 10 19.11231 21 57 13.30 +03 19 22.8 19.8   704 – Lincoln Laboratory ETS, New Mexico MPS 39176
2001 10 19.12874 21 57 13.57 +03 19 17.0 19.6   704 – Lincoln Laboratory ETS, New Mexico MPS 39176
2001 10 19.14556 21 57 13.57 +03 19 11.9 19.7   704 – Lincoln Laboratory ETS, New Mexico MPS 39176
2002 11 05.30742 04 59 48.24 +19 53 38.2 19.7   704 – Lincoln Laboratory ETS, New Mexico MPS 65789
2002 11 05.32461 04 59 47.67 +19 53 33.6 19.5   704 – Lincoln Laboratory ETS, New Mexico MPS 65789
2002 11 05.34172 04 59 47.02 +19 53 29.1 19.9   704 – Lincoln Laboratory ETS, New Mexico MPS 65789
2002 11 05.35885 04 59 46.39 +19 53 25.4 19.6   704 – Lincoln Laboratory ETS, New Mexico MPS 65789
2002 11 05.37601 04 59 45.80 +19 53 20.3 19.7   704 – Lincoln Laboratory ETS, New Mexico MPS 65789
2002 11 06.33950 04 59 12.43 +19 48 58.9 19.7   704 – Lincoln Laboratory ETS, New Mexico MPS 65789
2002 11 06.35630 04 59 11.78 +19 48 54.6 19.9   704 – Lincoln Laboratory ETS, New Mexico MPS 65789
2002 11 06.37310 04 59 11.11 +19 48 50.7 20.2   704 – Lincoln Laboratory ETS, New Mexico MPS 65789
2002 11 06.38991 04 59 10.52 +19 48 46.2 20.0   704 – Lincoln Laboratory ETS, New Mexico MPS 65789
2002 11 14.33618 04 53 55.98 +19 11 36.6 19.7   704 – Lincoln Laboratory ETS, New Mexico MPS 65789
2002 11 14.38935 04 53 53.69 +19 11 19.3 19.9   704 – Lincoln Laboratory ETS, New Mexico MPS 65790
2002 11 14.40715 04 53 52.79 +19 11 14.5 20.3   704 – Lincoln Laboratory ETS, New Mexico MPS 65790
2002 11 24.45854 04 45 57.86 +18 22 13.9 19.8   644 – Palomar Mountain/NEAT MPS 67790
2002 11 24.48114 04 45 56.66 +18 22 06.7 20.1   644 – Palomar Mountain/NEAT MPS 67790
2002 11 24.51040 04 45 55.19 +18 21 58.2 19.8   644 – Palomar Mountain/NEAT MPS 67790
2002 11 28.54830 04 42 30.31 +18 02 09.4 20.4   608 – Haleakala-AMOS MPS 67790
2002 11 28.55895 04 42 29.71 +18 02 06.3 19.7   608 – Haleakala-AMOS MPS 67790
2002 11 28.56992 04 42 29.15 +18 02 02.6 20.0   608 – Haleakala-AMOS MPS 67790
2002 12 03.23613 04 38 29.18 +17 39 23.1 18.9   644 – Palomar Mountain/NEAT MPS 67790
2002 12 03.29918 04 38 25.87 +17 39 05.4 18.7   644 – Palomar Mountain/NEAT MPS 67790
2002 12 03.38374 04 38 21.40 +17 38 41.0 19.1   644 – Palomar Mountain/NEAT MPS 67790
2002 12 05.52555 04 36 31.39 +17 28 29.9 20.4   608 – Haleakala-AMOS MPS 67790
2002 12 05.53638 04 36 30.84 +17 28 26.4 20.4   608 – Haleakala-AMOS MPS 67790
2002 12 05.54722 04 36 30.28 +17 28 23.4 20.3   608 – Haleakala-AMOS MPS 67790
2003 01 27.17771 04 12 38.50 +15 04 10.0 20.4   644 – Palomar Mountain/NEAT MPS 71331
2003 01 27.19861 04 12 38.62 +15 04 09.4 20.1   644 – Palomar Mountain/NEAT MPS 71331
2003 01 27.21962 04 12 38.72 +15 04 08.9 19.9   644 – Palomar Mountain/NEAT MPS 71331
2004 01 28.28824 09 15 56.05 -01 25 17.7 19.7   704 – Lincoln Laboratory ETS, New Mexico MPS 97708
2004 01 28.30219 09 15 55.40 -01 25 15.5 19.7   704 – Lincoln Laboratory ETS, New Mexico MPS 97708
2004 01 28.32716 09 15 54.22 -01 25 13.6 19.8   704 – Lincoln Laboratory ETS, New Mexico MPS 97708
2004 02 12.31329 09 04 25.50 -00 43 39.5 19.5   644 – Palomar Mountain/NEAT MPS 98698
2004 02 12.33321 09 04 24.53 -00 43 34.8 19.3   644 – Palomar Mountain/NEAT MPS 98698
2004 02 12.35471 09 04 23.54 -00 43 30.8 19.5   644 – Palomar Mountain/NEAT MPS 98698
2005 05 01.17513 13 07 53.22 -16 06 10.8 19.4   644 – Palomar Mountain/NEAT MPS 133254
2005 05 01.19979 13 07 52.29 -16 06 00.1 19.5   644 – Palomar Mountain/NEAT MPS 133254
2005 05 01.22750 13 07 51.28 -16 05 47.8 19.8   644 – Palomar Mountain/NEAT MPS 133254
2007 10 08.33634 01 38 08.80 +20 23 01.0 18.6 V 703 – Catalina Sky Survey MPS 218470
2007 10 08.34912 01 38 08.26 +20 22 55.8 18.9 V 703 – Catalina Sky Survey MPS 218470
2007 10 08.36185 01 38 07.69 +20 22 50.7 18.9 V 703 – Catalina Sky Survey MPS 218470
2007 10 08.37459 01 38 07.08 +20 22 45.4 18.8 V 703 – Catalina Sky Survey MPS 218470
2007 10 12.27998 01 35 18.47 +19 56 18.2 19.0 r 699 – Lowell Observatory-LONEOS MPS 220225
2007 10 12.30558 01 35 17.29 +19 56 07.6 19.0 r 699 – Lowell Observatory-LONEOS MPS 220225
2007 10 12.33121 01 35 16.19 +19 55 54.7 18.8 r 699 – Lowell Observatory-LONEOS MPS 220225
2007 10 14.38443 01 33 45.46 +19 41 12.1 19.0 V 703 – Catalina Sky Survey MPS 220225
2007 10 14.39324 01 33 45.03 +19 41 08.4 19.3 V 703 – Catalina Sky Survey MPS 220225
